Location: Valasske Mezirici
(49.4670°N, 17.9670°E)
Time: 13:31:12
(UTC+02:00)

ISS - Visible Passes

Search period start: 24 April 2024 00:00
Search period end: 04 May 2024 00:00
Orbit: 411 x 418 km, 51.6° (Epoch: 24 April)

Date Brightness Start Highest point End Pass type
(mag) Time Alt. Az. Time Alt. Az. Time Alt. Az.
24 Apr -1.5 03:57:00 13° SSE 03:58:24 16° SE 04:00:30 10° E visible
25 Apr -3.2 04:42:35 12° SW 04:45:33 48° SSE 04:48:46 10° ENE visible
26 Apr -2.6 03:55:12 24° S 03:56:26 32° SSE 03:59:28 10° E visible
27 Apr -2.0 03:07:42 21° SE 03:07:42 21° SE 03:09:56 10° E visible
27 Apr -3.8 04:40:31 11° WSW 04:43:41 86° SSE 04:47:01 10° ENE visible
28 Apr -3.7 03:52:55 30° SW 03:54:22 63° SSE 03:57:40 10° ENE visible
29 Apr -3.2 03:05:12 42° SE 03:05:12 42° SE 03:08:12 10° ENE visible
29 Apr -3.5 04:38:19 10° W 04:41:38 65° N 04:44:57 10° ENE visible
30 Apr -1.5 02:17:24 18° E 02:17:24 18° E 02:18:35 10° E visible
30 Apr -3.8 03:50:13 23° W 03:52:07 79° NNW 03:55:27 10° ENE visible
01 May -4.0 03:02:19 72° SW 03:02:34 80° SSE 03:05:55 10° ENE visible
01 May -3.2 04:36:05 10° W 04:39:22 56° N 04:42:39 10° E visible
02 May -2.3 02:14:20 31° E 02:14:20 31° E 02:16:16 10° ENE visible
02 May -3.3 03:47:08 16° W 03:49:41 60° N 03:52:59 10° ENE visible
03 May -0.9 01:26:17 12° E 01:26:17 12° E 01:26:31 10° E visible
03 May -3.6 02:59:04 44° W 02:59:57 69° NNW 03:03:17 10° ENE visible
03 May -3.3 04:33:31 10° WNW 04:36:49 61° N 04:40:07 10° E visible
